SCP
0 0 0 0 0 0 0 0 0 0 0 0 0 0 0 0 0 0 0 0 0 0 0 0 0 0 0 0 0 0 0 0 0 0 0 0 0 0 0 0 0 0 0
0 0 0 0 0 0 0 0 0 0 0 0 0 0 0 0 0 0 0 0 0 0 0 0 0 0 0 0 0 0 0 0 0 0 0 0 0 0 0 0 0 0 0
0 0 0 0 0 0 0 0 0 0 0 0 0 0 0 0 0 0 0 0 0 0 0 0 0 0 0 0 0 0 0 0 0 0 0 0 0 0 0 0 0 0 0
0 0 0 0 0 0 0 0 0 0 0 0 0 0 0 0 0 0 0 0 0 0 0 0 0 0 0 0 0 0 0 0 0 0 0 0 0 0 0 0 0 0 0
0 0 0 0 0 0 0 0 0 0 0 0 0 0 0 0 0 0 0 0 0 0 0 0 0 0 0 0 0 0 0 0 0 0 0 0 0 0 0 0 0 0 0
0 0 0 0 0 0 0 0 0 0 0 0 0 0 0 0 0 0 0 0 0 0 0 0 0 0 0 0 0 0 0 0 0 0 0 0 0 0 0 0 0 0 0
0 0 0 0 0 0 0 0 0 0 0 0 0 0 0 0 0 0 0 0 0 0 0 0 0 0 0 0 0 0 0 0 0 0 0 0 0 0 0 0 0 0 0
0 0 0 0 0 0 0 0 0 0 0 0 0 0 0 0 0 0 0 0 0 0 0 0 0 0 0 0 0 0 0 0 0 0 0 0 0 0 0 0 -0 -0 -0
0 0 0 0 0 0 0 0 0 0 0 0 0 0 0 0 0 0 0 0 0 0 0 0 0 0 0 0 0 0 0 0 0 0 0 0 0 0 0 0 0 0 -0
0 0 0 0 0 0 0 0 0 0 0 0 0 0 0 0 0 0 0 0 0 0 0 0 0 0 0 0 0 0 0 0 -0 0 0 0 0 0 0 0 0 0 -0
0 0 0 0 0 0 0 0 0 0 0 0 0 0 0 0 0 0 0 0 0 0 0 0 0 0 0 0 0 0 0 -0 0 0 0 0 0 0 0 0 0 0 0
0 0 0 0 0 0 0 0 0 0 0 0 0 0 0 0 0 0 0 0 0 0 0 0 0 0 0 0 0 0 0 0 0 0 0 0 0 0 0 0 0 0 0
0 0 0 0 0 0 0 0 0 0 0 0 0 0 0 0 0 0 0 0 0 0 0 0 0 0 0 0 0 0 0 0 0 0 0 0 0 0 0 0 0 0 0
0 0 0 0 0 0 0 0 0 0 0 0 0 0 0 0 0 0 0 0 0 0 0 0 0 0 0 0 0 0 0 0 0 0 0 0 0 0 0 0 0 0 0
0 0 0 0 0 0 0 0 0 0 0 0 0 0 0 0 0 0 0 0 0 0 0 0 0 0 0 0 0 0 0 0 0 0 0 0 0 0 0 0 0 0 0
0 0 0 0 0 0 0 0 0 0 0 0 0 0 0 0 0 0 0 0 0 0 0 0 0 0 0 0 0 0 0 0 0 0 0 0 0 0 0 0 0 0 0
0 0 0 0 0 0 0 0 0 0 0 0 0 0 0 0 0 0 0 0 0 0 0 0 0 0 0 0 0 0 0 0 0 0 0 0 0 0 0 0 0 0 0
0 0 0 0 0 0 0 0 0 0 0 0 0 0 0 0 0 0 0 0 0 0 0 0 0 0 0 0 0 0 0 0 0 0 0 0 0 0 0 0 0 0 0
0 0 0 0 0 0 0 0 0 0 0 0 0 0 0 0 0 0 0 0 0 0 0 0 0 0 0 0 0 0 0 0 0 0 0 0 0 0 0 0 0 0 0
0 0 0 0 0 0 0 0 0 0 0 0 0 0 0 0 0 0 0 0 0 0 0 0 0 0 0 0 0 0 0 0 0 0 0 0 0 0 0 0 0 0 0
0 0 0 0 0 0 0 0 0 0 0 0 0 0 0 0 0 0 0 0 0 0 0 0 0 0 0 0 0 0 0 0 0 0 0 0 0 0 0 0 0 -0 -0
0 0 0 0 0 0 0 0 0 0 0 0 0 0 0 0 0 0 0 0 0 0 0 0 0 0 0 0 0 0 0 0 0 0 0 0 0 0 0 -0 -0 -0 -0
0 0 0 0 0 0 0 0 0 0 0 0 0 0 0 0 0 0 0 0 0 0 0 0 0 0 0 0 0 0 0 0 0 0 0 0 0 -0 -0 -0 -0 -0 -0
0 0 0 0 0 0 0 0 0 0 0 0 0 0 0 0 0 0 0 0 0 0 0 0 0 0 0 0 0 0 0 0 0 0 -0 -0 -0 -0 -0 -0 -0 -0 -0
0 0 0 0 0 0 0 0 0 0 0 0 0 0 0 0 0 0 0 0 0 0 0 0 0 0 -0 -0 -0 -0 -0 -0 -0 -0 -0 -0 -0 -0 -0 -0 -0 -0 -0
0 0 0 0 0 0 0 0 0 0 0 0 0 0 0 0 0 0 0 0 0 0 0 0 0 -0 -0 -0 -0 -0 -0 -0 -0 -0 -0 -0 -0 -0 -0 -0 -0 -0 -0
Wind_Speed_500mb
44 40 38 35 33 35 38 39 39 41 43 45 47 49 53 54 56 60 61 65 68 67 65 70 74 78 84 87 89 89 88 70 68 105 109 106 94 88 86 81 81 86 86
46 45 45 43 40 42 42 42 43 47 48 50 51 54 56 58 59 63 66 67 71 70 69 72 77 81 84 87 88 88 86 81 66 80 106 109 95 86 90 86 72 81 91
50 50 50 49 47 49 47 46 48 50 51 52 55 57 58 60 62 65 68 71 71 70 73 76 80 82 86 86 86 86 82 75 73 75 98 103 93 91 71 73 101 91 84
51 53 55 53 50 50 49 51 51 52 53 55 57 59 61 63 66 68 70 72 72 75 76 79 81 83 84 85 83 79 70 74 78 81 87 94 82 98 89 77 80 75 105
55 55 57 50 48 50 52 51 53 55 56 57 58 61 63 66 68 70 70 73 76 78 78 80 82 83 82 78 62 68 72 77 80 81 85 96 91 76 58 87 103 100 99
58 57 52 50 49 51 51 53 55 56 57 58 60 63 66 67 68 66 68 73 75 77 80 82 83 84 83 74 61 63 63 70 80 83 88 78 103 93 85 85 92 92 106
58 55 53 50 49 49 51 55 56 56 55 59 62 65 66 66 65 66 68 71 75 76 78 82 84 83 79 79 82 66 68 62 65 76 87 86 95 85 86 103 97 90 90
56 53 50 46 48 48 53 55 54 53 57 61 63 64 66 64 63 66 67 71 74 75 78 77 79 81 77 67 70 76 81 84 77 68 64 85 94 90 85 91 99 111 117
52 47 42 43 48 51 52 52 53 56 59 60 62 62 63 63 63 65 68 72 73 76 76 76 74 75 66 61 70 83 84 80 59 85 81 73 78 89 85 87 87 82 90
43 40 40 47 48 50 50 50 53 57 58 60 60 61 62 62 61 65 66 66 72 76 80 81 63 60 60 64 70 77 81 93 96 83 88 91 83 82 77 68 68 69 75
38 41 44 44 47 48 49 52 54 55 59 60 61 59 60 61 63 65 64 58 62 74 79 80 78 59 64 66 66 73 85 86 84 90 90 83 80 74 70 67 64 66 75
42 42 43 46 47 47 49 51 53 57 58 57 59 60 59 60 62 64 62 48 54 60 71 74 75 66 71 65 68 82 72 73 83 81 80 78 77 75 72 70 65 65 65
42 42 44 44 44 47 49 50 52 52 53 56 60 62 63 65 68 68 65 64 52 55 62 69 73 67 68 81 91 76 75 72 71 71 71 72 72 74 72 70 68 69 71
40 41 41 41 43 45 46 47 47 48 50 54 58 61 64 68 73 71 67 67 65 66 72 69 69 70 83 81 73 67 65 64 64 65 67 68 71 72 73 70 74 75 81
39 39 38 40 42 41 41 43 45 46 48 50 55 60 67 72 70 53 55 59 63 63 61 73 78 77 71 69 67 68 66 64 64 62 66 70 71 73 73 72 74 77 79
37 36 36 38 36 37 39 40 43 45 45 47 54 60 62 64 60 51 52 52 52 54 65 72 69 66 65 66 68 68 65 68 65 64 65 70 72 74 77 76 75 76 81
33 33 34 32 33 35 36 39 41 41 43 45 51 57 60 61 60 48 48 46 55 56 55 59 59 59 59 62 67 66 69 68 64 64 67 69 72 75 77 78 79 80 84
31 31 28 27 29 31 33 38 44 49 52 50 43 49 55 52 53 48 42 52 53 49 50 54 55 55 58 64 65 65 69 67 64 66 68 70 72 76 79 79 81 84 86
27 23 22 24 25 28 33 38 41 45 47 48 49 41 45 45 48 47 45 47 50 50 47 51 53 54 59 63 62 63 65 67 67 68 69 72 75 77 80 83 87 88 87
22 19 19 20 23 28 32 34 37 40 41 42 44 49 48 48 45 46 47 49 51 49 48 53 52 54 60 61 60 62 68 68 69 70 72 75 77 77 83 88 90 93 92
18 16 14 19 23 27 29 32 34 35 38 39 41 44 45 45 48 50 50 48 49 48 49 53 54 56 60 59 58 66 69 70 69 72 75 76 78 83 87 92 96 95 95
14 11 14 18 21 24 26 28 30 32 37 38 38 38 42 43 45 47 47 46 45 42 47 52 55 57 60 57 61 69 74 75 73 76 78 77 80 88 94 99 101 101 100
10 10 12 15 17 19 22 24 29 32 34 38 41 42 42 43 44 45 46 47 45 44 47 51 56 59 58 55 59 69 77 78 74 75 79 79 87 92 99 105 105 104 96
8 8 11 12 14 16 19 25 29 32 35 37 39 41 43 44 45 46 46 48 46 47 50 54 57 61 62 56 62 69 74 71 70 73 72 82 97 99 104 104 94 93 92
8 9 7 8 10 14 19 23 27 30 33 37 38 40 42 44 46 46 46 48 49 51 54 58 60 62 60 57 63 66 68 67 66 72 75 90 97 97 94 93 92 90 82
8 4 5 8 10 16 20 24 27 30 33 36 38 41 44 46 47 49 49 51 52 53 58 62 62 64 60 61 70 71 73 73 71 72 85 94 90 90 90 84 84 78 74
Wind_Direction_500mb
243 248 251 257 264 269 274 281 287 290 295 297 299 300 300 301 304 305 308 312 312 311 311 313 317 319 320 319 318 317 315 306 294 306 308 309 309 314 316 313 310 310 309
244 246 250 255 260 267 275 283 284 285 287 291 294 297 297 298 300 303 305 306 309 309 309 311 314 316 317 317 316 315 314 313 302 299 308 311 310 310 314 314 311 309 307
244 246 249 254 261 267 273 278 280 283 287 288 291 295 296 296 298 300 301 302 305 307 307 308 312 314 315 315 315 315 314 314 311 301 300 305 305 312 308 302 304 308 306
245 248 250 253 261 267 270 275 282 285 287 289 290 293 295 296 296 298 298 300 305 307 305 307 310 312 313 315 314 314 314 308 303 300 299 302 303 303 310 308 310 305 301
246 248 250 257 262 269 270 277 282 285 287 289 290 294 294 294 296 297 298 303 304 303 302 305 308 311 312 312 306 305 304 304 303 301 299 301 302 306 307 305 301 305 305
245 249 252 258 264 270 271 276 282 286 288 289 291 292 292 293 294 296 300 300 301 302 304 305 307 309 312 312 301 299 296 298 298 299 301 300 298 305 305 304 303 303 303
244 248 251 258 266 269 274 278 284 287 288 289 289 290 291 293 295 297 298 299 298 301 303 304 307 311 313 312 309 303 303 301 296 297 295 298 301 304 304 304 301 298 296
242 245 250 259 266 272 277 282 285 286 287 287 289 292 293 295 296 297 297 297 299 301 302 305 309 311 312 309 310 308 303 304 309 302 296 296 297 301 300 297 296 292 291
240 244 252 262 268 275 280 282 284 287 288 289 291 292 293 294 297 298 297 297 300 300 304 308 312 311 311 307 306 302 307 308 291 300 300 295 294 299 299 299 298 298 297
238 247 255 261 272 279 281 285 286 286 288 291 291 292 295 298 300 299 297 300 303 305 307 311 310 304 305 306 305 307 302 301 308 310 299 302 305 306 305 303 303 297 295
240 246 258 269 274 278 283 285 286 289 291 292 294 298 298 298 298 298 301 304 305 306 308 308 310 308 306 307 304 297 300 309 303 299 303 307 309 311 312 312 311 306 301
241 254 264 269 274 281 285 287 290 291 292 295 298 298 298 298 299 301 308 306 303 301 303 304 307 310 305 302 301 308 308 305 307 309 309 311 317 319 318 318 316 309 305
247 257 265 273 280 284 287 288 290 292 297 297 298 301 304 305 307 312 316 315 308 304 300 302 304 300 299 303 308 310 308 309 312 313 313 315 320 322 321 323 319 318 315
248 259 268 276 282 285 287 289 292 294 295 298 301 303 306 308 309 315 320 322 315 307 314 313 300 296 299 303 306 310 312 317 322 319 318 320 323 325 324 328 325 325 322
250 259 269 279 281 285 289 292 293 294 298 302 307 309 310 309 314 317 314 311 312 312 303 291 296 303 308 312 314 317 319 322 326 323 323 325 326 326 325 328 327 327 324
252 261 270 274 278 284 289 290 295 299 304 307 307 306 305 306 310 314 314 314 310 302 301 303 308 311 315 319 322 322 323 327 328 325 326 327 329 328 328 328 328 327 325
252 261 264 269 277 282 290 297 299 300 304 308 309 308 310 310 311 319 319 314 300 309 310 310 313 317 321 323 325 326 326 328 327 327 328 329 330 329 328 328 329 328 325
250 255 260 269 279 291 297 301 306 310 313 316 317 315 313 316 314 319 320 313 317 314 315 316 321 323 325 326 326 327 327 330 329 328 330 329 330 329 328 328 329 326 326
241 246 258 273 287 296 303 307 310 314 317 320 321 321 317 321 321 321 322 318 319 321 322 320 324 326 327 327 327 327 329 331 330 330 331 330 330 329 327 328 327 327 326
228 242 261 279 297 305 308 310 314 318 321 325 328 328 331 326 331 331 327 325 322 323 324 324 327 328 329 328 328 330 331 333 332 332 330 329 330 329 327 328 327 324 322
225 247 279 302 303 306 310 316 320 323 327 330 332 330 332 326 328 327 326 326 324 324 324 327 328 329 332 331 332 333 334 334 335 333 330 329 329 329 329 328 327 326 324
230 265 289 295 303 308 314 319 323 327 328 331 331 331 328 326 324 323 324 325 326 325 327 327 327 333 334 333 335 337 337 334 333 331 329 328 329 330 330 328 327 325 322
244 270 287 298 302 308 315 324 328 331 331 330 330 329 327 326 326 326 326 326 326 327 330 330 330 333 335 332 335 337 335 332 330 329 328 328 330 330 330 326 323 318 314
241 272 285 294 306 315 324 328 330 329 329 328 326 325 325 326 327 327 327 326 326 328 332 332 333 334 333 331 334 336 334 331 329 329 330 330 329 327 325 319 309 308 309
236 257 276 292 302 322 328 329 328 327 327 326 326 324 324 326 327 327 327 327 326 327 331 334 334 334 334 335 339 338 336 336 335 336 335 333 325 319 314 312 316 317 318
216 227 264 291 325 332 331 330 326 326 326 326 326 326 327 327 327 328 327 328 327 328 330 332 334 334 331 331 335 337 340 341 338 341 336 327 322 320 322 321 322 320 319
Wind_Speed_850mb
44 40 38 35 33 35 38 39 39 41 43 45 47 49 53 54 56 60 61 65 68 67 65 70 74 78 84 87 89 89 88 70 68 105 109 106 94 88 86 81 81 86 86
46 45 45 43 40 42 42 42 43 47 48 50 51 54 56 58 59 63 66 67 71 70 69 72 77 81 84 87 88 88 86 81 66 80 106 109 95 86 90 86 72 81 91
50 50 50 49 47 49 47 46 48 50 51 52 55 57 58 60 62 65 68 71 71 70 73 76 80 82 86 86 86 86 82 75 73 75 98 103 93 91 71 73 101 91 84
51 53 55 53 50 50 49 51 51 52 53 55 57 59 61 63 66 68 70 72 72 75 76 79 81 83 84 85 83 79 70 74 78 81 87 94 82 98 89 77 80 75 105
55 55 57 50 48 50 52 51 53 55 56 57 58 61 63 66 68 70 70 73 76 78 78 80 82 83 82 78 62 68 72 77 80 81 85 96 91 76 58 87 103 100 99
58 57 52 50 49 51 51 53 55 56 57 58 60 63 66 67 68 66 68 73 75 77 80 82 83 84 83 74 61 63 63 70 80 83 88 78 103 93 85 85 92 92 106
58 55 53 50 49 49 51 55 56 56 55 59 62 65 66 66 65 66 68 71 75 76 78 82 84 83 79 79 82 66 68 62 65 76 87 86 95 85 86 103 97 90 90
56 53 50 46 48 48 53 55 54 53 57 61 63 64 66 64 63 66 67 71 74 75 78 77 79 81 77 67 70 76 81 84 77 68 64 85 94 90 85 91 99 111 117
52 47 42 43 48 51 52 52 53 56 59 60 62 62 63 63 63 65 68 72 73 76 76 76 74 75 66 61 70 83 84 80 59 85 81 73 78 89 85 87 87 82 90
43 40 40 47 48 50 50 50 53 57 58 60 60 61 62 62 61 65 66 66 72 76 80 81 63 60 60 64 70 77 81 93 96 83 88 91 83 82 77 68 68 69 75
38 41 44 44 47 48 49 52 54 55 59 60 61 59 60 61 63 65 64 58 62 74 79 80 78 59 64 66 66 73 85 86 84 90 90 83 80 74 70 67 64 66 75
42 42 43 46 47 47 49 51 53 57 58 57 59 60 59 60 62 64 62 48 54 60 71 74 75 66 71 65 68 82 72 73 83 81 80 78 77 75 72 70 65 65 65
42 42 44 44 44 47 49 50 52 52 53 56 60 62 63 65 68 68 65 64 52 55 62 69 73 67 68 81 91 76 75 72 71 71 71 72 72 74 72 70 68 69 71
40 41 41 41 43 45 46 47 47 48 50 54 58 61 64 68 73 71 67 67 65 66 72 69 69 70 83 81 73 67 65 64 64 65 67 68 71 72 73 70 74 75 81
39 39 38 40 42 41 41 43 45 46 48 50 55 60 67 72 70 53 55 59 63 63 61 73 78 77 71 69 67 68 66 64 64 62 66 70 71 73 73 72 74 77 79
37 36 36 38 36 37 39 40 43 45 45 47 54 60 62 64 60 51 52 52 52 54 65 72 69 66 65 66 68 68 65 68 65 64 65 70 72 74 77 76 75 76 81
33 33 34 32 33 35 36 39 41 41 43 45 51 57 60 61 60 48 48 46 55 56 55 59 59 59 59 62 67 66 69 68 64 64 67 69 72 75 77 78 79 80 84
31 31 28 27 29 31 33 38 44 49 52 50 43 49 55 52 53 48 42 52 53 49 50 54 55 55 58 64 65 65 69 67 64 66 68 70 72 76 79 79 81 84 86
27 23 22 24 25 28 33 38 41 45 47 48 49 41 45 45 48 47 45 47 50 50 47 51 53 54 59 63 62 63 65 67 67 68 69 72 75 77 80 83 87 88 87
22 19 19 20 23 28 32 34 37 40 41 42 44 49 48 48 45 46 47 49 51 49 48 53 52 54 60 61 60 62 68 68 69 70 72 75 77 77 83 88 90 93 92
18 16 14 19 23 27 29 32 34 35 38 39 41 44 45 45 48 50 50 48 49 48 49 53 54 56 60 59 58 66 69 70 69 72 75 76 78 83 87 92 96 95 95
14 11 14 18 21 24 26 28 30 32 37 38 38 38 42 43 45 47 47 46 45 42 47 52 55 57 60 57 61 69 74 75 73 76 78 77 80 88 94 99 101 101 100
10 10 12 15 17 19 22 24 29 32 34 38 41 42 42 43 44 45 46 47 45 44 47 51 56 59 58 55 59 69 77 78 74 75 79 79 87 92 99 105 105 104 96
8 8 11 12 14 16 19 25 29 32 35 37 39 41 43 44 45 46 46 48 46 47 50 54 57 61 62 56 62 69 74 71 70 73 72 82 97 99 104 104 94 93 92
8 9 7 8 10 14 19 23 27 30 33 37 38 40 42 44 46 46 46 48 49 51 54 58 60 62 60 57 63 66 68 67 66 72 75 90 97 97 94 93 92 90 82
8 4 5 8 10 16 20 24 27 30 33 36 38 41 44 46 47 49 49 51 52 53 58 62 62 64 60 61 70 71 73 73 71 72 85 94 90 90 90 84 84 78 74
Wind_Direction_850mb
243 248 251 257 264 269 274 281 287 290 295 297 299 300 300 301 304 305 308 312 312 311 311 313 317 319 320 319 318 317 315 306 294 306 308 309 309 314 316 313 310 310 309
244 246 250 255 260 267 275 283 284 285 287 291 294 297 297 298 300 303 305 306 309 309 309 311 314 316 317 317 316 315 314 313 302 299 308 311 310 310 314 314 311 309 307
244 246 249 254 261 267 273 278 280 283 287 288 291 295 296 296 298 300 301 302 305 307 307 308 312 314 315 315 315 315 314 314 311 301 300 305 305 312 308 302 304 308 306
245 248 250 253 261 267 270 275 282 285 287 289 290 293 295 296 296 298 298 300 305 307 305 307 310 312 313 315 314 314 314 308 303 300 299 302 303 303 310 308 310 305 301
246 248 250 257 262 269 270 277 282 285 287 289 290 294 294 294 296 297 298 303 304 303 302 305 308 311 312 312 306 305 304 304 303 301 299 301 302 306 307 305 301 305 305
245 249 252 258 264 270 271 276 282 286 288 289 291 292 292 293 294 296 300 300 301 302 304 305 307 309 312 312 301 299 296 298 298 299 301 300 298 305 305 304 303 303 303
244 248 251 258 266 269 274 278 284 287 288 289 289 290 291 293 295 297 298 299 298 301 303 304 307 311 313 312 309 303 303 301 296 297 295 298 301 304 304 304 301 298 296
242 245 250 259 266 272 277 282 285 286 287 287 289 292 293 295 296 297 297 297 299 301 302 305 309 311 312 309 310 308 303 304 309 302 296 296 297 301 300 297 296 292 291
240 244 252 262 268 275 280 282 284 287 288 289 291 292 293 294 297 298 297 297 300 300 304 308 312 311 311 307 306 302 307 308 291 300 300 295 294 299 299 299 298 298 297
238 247 255 261 272 279 281 285 286 286 288 291 291 292 295 298 300 299 297 300 303 305 307 311 310 304 305 306 305 307 302 301 308 310 299 302 305 306 305 303 303 297 295
240 246 258 269 274 278 283 285 286 289 291 292 294 298 298 298 298 298 301 304 305 306 308 308 310 308 306 307 304 297 300 309 303 299 303 307 309 311 312 312 311 306 301
241 254 264 269 274 281 285 287 290 291 292 295 298 298 298 298 299 301 308 306 303 301 303 304 307 310 305 302 301 308 308 305 307 309 309 311 317 319 318 318 316 309 305
247 257 265 273 280 284 287 288 290 292 297 297 298 301 304 305 307 312 316 315 308 304 300 302 304 300 299 303 308 310 308 309 312 313 313 315 320 322 321 323 319 318 315
248 259 268 276 282 285 287 289 292 294 295 298 301 303 306 308 309 315 320 322 315 307 314 313 300 296 299 303 306 310 312 317 322 319 318 320 323 325 324 328 325 325 322
250 259 269 279 281 285 289 292 293 294 298 302 307 309 310 309 314 317 314 311 312 312 303 291 296 303 308 312 314 317 319 322 326 323 323 325 326 326 325 328 327 327 324
252 261 270 274 278 284 289 290 295 299 304 307 307 306 305 306 310 314 314 314 310 302 301 303 308 311 315 319 322 322 323 327 328 325 326 327 329 328 328 328 328 327 325
252 261 264 269 277 282 290 297 299 300 304 308 309 308 310 310 311 319 319 314 300 309 310 310 313 317 321 323 325 326 326 328 327 327 328 329 330 329 328 328 329 328 325
250 255 260 269 279 291 297 301 306 310 313 316 317 315 313 316 314 319 320 313 317 314 315 316 321 323 325 326 326 327 327 330 329 328 330 329 330 329 328 328 329 326 326
241 246 258 273 287 296 303 307 310 314 317 320 321 321 317 321 321 321 322 318 319 321 322 320 324 326 327 327 327 327 329 331 330 330 331 330 330 329 327 328 327 327 326
228 242 261 279 297 305 308 310 314 318 321 325 328 328 331 326 331 331 327 325 322 323 324 324 327 328 329 328 328 330 331 333 332 332 330 329 330 329 327 328 327 324 322
225 247 279 302 303 306 310 316 320 323 327 330 332 330 332 326 328 327 326 326 324 324 324 327 328 329 332 331 332 333 334 334 335 333 330 329 329 329 329 328 327 326 324
230 265 289 295 303 308 314 319 323 327 328 331 331 331 328 326 324 323 324 325 326 325 327 327 327 333 334 333 335 337 337 334 333 331 329 328 329 330 330 328 327 325 322
244 270 287 298 302 308 315 324 328 331 331 330 330 329 327 326 326 326 326 326 326 327 330 330 330 333 335 332 335 337 335 332 330 329 328 328 330 330 330 326 323 318 314
241 272 285 294 306 315 324 328 330 329 329 328 326 325 325 326 327 327 327 326 326 328 332 332 333 334 333 331 334 336 334 331 329 329 330 330 329 327 325 319 309 308 309
236 257 276 292 302 322 328 329 328 327 327 326 326 324 324 326 327 327 327 327 326 327 331 334 334 334 334 335 339 338 336 336 335 336 335 333 325 319 314 312 316 317 318
216 227 264 291 325 332 331 330 326 326 326 326 326 326 327 327 327 328 327 328 327 328 330 332 334 334 331 331 335 337 340 341 338 341 336 327 322 320 322 321 322 320 319